Starlink 3072

operational
NORAD ID: 49153 Int'l Des: 2021-082 Owner: SPXS Country: US Constellation: starlink
LEOCIRCULAR

Starlink 3072について

説明を読み込み中...

リアルタイム位置

3D地球を読み込み中...

次回通過

高度履歴

Altitude vs Time

uPlot chart will show altitude changes over time

軌道要素

1 49153U 21082Z 25350.31777594 .00000626 00000-0 60254-4 0 9998
2 49153 70.0020 104.6638 0002911 262.8035 97.2793 14.98341813235683
Epoch: Dec 16, 2025 • Age: 17 hours

現在のステータス

高度 592.7 km
速度 7.56 km/s
衛星直下点 -60.31°S, 134.87°W
打ち上げ日 Sep 14, 2021
運用期間 4.2 years
タイプ internet

技術仕様

分類 Payload
質量 297.00 kg
乾燥質量 275.00 kg
総質量 297.00 kg
長さ 0.20 m
直径 2.80 m
スパン 9.00 m
形状 Box + pan
製造者 SPXS
バスタイプ Starlink
フェーズステータス In Orbit
所有者/国 SPXS/US

大規模コンステレーション

Loading constellations...